FW7970 Weather Reports


time (UTC)temp
C
wind
direction
speed
KPH
gust
KPH
rain 1hr
cm
rain 24hr
cm
rain mn
cm
humidity
%
barometer
mb
20260505041439 20 351 1.6 1.6 0.00 0.00 0.00 65 1006.3
20260505040937 20 344 1.6 1.6 0.00 0.00 0.00 65 1006.1
20260505040434 20 2 1.6 3.2 0.00 0.00 0.00 64 1006.2
20260505035931 20 349 0.0 1.6 0.00 0.00 0.00 64 1006.3
20260505035427 20 336 1.6 1.6 0.00 0.00 0.00 64 1006.2
20260505034924 20 352 1.6 3.2 0.00 0.00 0.00 64 1006.3
20260505034420 20 339 1.6 1.6 0.00 0.00 0.00 63 1006.3
20260505033918 20 351 0.0 0.0 0.00 0.00 0.00 64 1006.3
20260505033414 20 341 1.6 1.6 0.00 0.00 0.00 63 1006.2
20260505032913 20 349 1.6 1.6 0.00 0.00 0.00 63 1006.4
20260505032409 20 353 0.0 1.6 0.00 0.00 0.00 62 1006.5
20260505031906 20 354 0.0 0.0 0.00 0.00 0.00 61 1006.1
20260505031403 20 352 1.6 1.6 0.00 0.00 0.00 62 1006.2
20260505030900 20 357 0.0 0.0 0.00 0.00 0.00 62 1006.0
20260505030355 21 358 1.6 1.6 0.00 0.00 0.00 61 1006.0
20260505025851 21 330 0.0 0.0 0.00 0.00 0.00 61 1006.0
20260505025349 21 332 0.0 1.6 0.00 0.00 0.00 61 1005.9
20260505024848 21 290 1.6 3.2 0.00 0.00 0.00 59 1006.0
20260505024345 21 328 3.2 4.8 0.00 0.00 0.00 59 1005.8
20260505023841 21 330 1.6 1.6 0.00 0.00 0.00 59 1005.7
20260505023338 21 254 3.2 4.8 0.00 0.00 0.00 59 1005.7
20260505022836 21 343 1.6 3.2 0.00 0.00 0.00 58 1005.6
20260505022332 21 279 1.6 3.2 0.00 0.00 0.00 59 1005.2
20260505021830 21 10 4.8 8.0 0.00 0.00 0.00 59 1005.2
20260505021326 21 329 1.6 1.6 0.00 0.00 0.00 59 1005.5
20260505020822 21 330 3.2 3.2 0.00 0.00 0.00 58 1005.2
20260505020318 21 338 1.6 1.6 0.00 0.00 0.00 58 1005.3
20260505015815 22 326 3.2 4.8 0.00 0.00 0.00 58 1004.9
20260505015313 22 349 1.6 3.2 0.00 0.00 0.00 56 1004.9
20260505014810 22 307 3.2 3.2 0.00 0.00 0.00 56 1005.0
20260505014307 22 4 3.2 4.8 0.00 0.00 0.00 57 1004.6
20260505013803 22 311 3.2 4.8 0.00 0.00 0.00 56 1004.6
20260505013300 22 259 1.6 3.2 0.00 0.00 0.00 56 1004.6
20260505012758 22 251 1.6 3.2 0.00 0.00 0.00 56 1004.7
20260505012255 22 217 3.2 4.8 0.00 0.00 0.00 55 1004.4
20260505011751 22 320 1.6 1.6 0.00 0.00 0.00 57 1004.5
20260505011248 22 265 1.6 3.2 0.00 0.00 0.00 56 1004.4
20260505010744 22 314 4.8 8.0 0.00 0.00 0.00 55 1004.3
20260505010235 23 301 4.8 9.7 0.00 0.00 0.00 55 1004.1
20260505005732 23 274 4.8 4.8 0.00 0.00 0.00 55 1003.8
20260505005229 23 100 8.0 12.9 0.00 0.00 0.00 55 1003.9
20260505004726 23 336 4.8 4.8 0.00 0.00 0.00 57 1003.9
20260505004222 23 321 1.6 3.2 0.00 0.00 0.00 57 1004.1
20260505003719 23 338 1.6 1.6 0.00 0.00 0.00 56 1003.8
20260505003217 23 331 3.2 3.2 0.00 0.00 0.00 56 1003.9
20260505002713 23 330 1.6 1.6 0.00 0.00 0.00 55 1003.9
20260505002211 23 329 1.6 1.6 0.00 0.00 0.00 55 1003.9
20260505001708 23 355 0.0 1.6 0.00 0.00 0.00 55 1004.1
20260505001206 23 242 1.6 3.2 0.00 0.00 0.00 55 1004.0
20260505000703 23 347 3.2 4.8 0.00 0.00 0.00 54 1004.2
20260505000200 23 349 0.0 1.6 0.00 0.00 0.00 55 1004.0
20260504235656 23 283 1.6 1.6 0.00 0.00 0.00 55 1004.0
20260504235153 23 314 3.2 4.8 0.00 0.00 0.00 55 1004.2
20260504234650 23 289 4.8 4.8 0.00 0.00 0.00 54 1004.3
20260504234147 24 321 3.2 3.2 0.00 0.00 0.00 54 1004.1
20260504233643 24 11 0.0 1.6 0.00 0.00 0.00 54 1004.1
20260504233139 24 274 6.4 8.0 0.00 0.00 0.00 52 1004.3
20260504232637 25 21 0.0 0.0 0.00 0.00 0.00 53 1004.1
20260504232134 25 312 1.6 3.2 0.00 0.00 0.00 54 1004.0
20260504231631 25 241 8.0 11.3 0.00 0.00 0.00 52 1004.2
20260504231127 25 16 4.8 4.8 0.00 0.00 0.00 51 1004.4
20260504230623 25 9 1.6 3.2 0.00 0.00 0.00 51 1004.3
20260504230122 25 279 4.8 4.8 0.00 0.00 0.00 50 1004.5
20260504225620 25 267 4.8 4.8 0.00 0.00 0.00 50 1004.3
20260504225115 25 348 1.6 1.6 0.00 0.00 0.00 51 1004.3
20260504224612 26 269 1.6 3.2 0.00 0.00 0.00 51 1004.3
20260504224109 26 246 1.6 1.6 0.00 0.00 0.00 49 1004.4
20260504223606 26 224 3.2 4.8 0.00 0.00 0.00 49 1004.3
20260504223102 26 282 8.0 12.9 0.00 0.00 0.00 49 1004.4
20260504222559 26 259 3.2 4.8 0.00 0.00 0.00 50 1004.6
20260504222056 25 336 4.8 4.8 0.00 0.00 0.00 51 1004.2
20260504221554 25 336 4.8 8.0 0.00 0.00 0.00 49 1004.3
20260504221050 26 220 9.7 12.9 0.00 0.00 0.00 47 1004.4
20260504220547 26 281 3.2 4.8 0.00 0.00 0.00 46 1004.3
20260504220044 27 336 3.2 4.8 0.00 0.00 0.00 45 1004.3
20260504215540 26 193 4.8 4.8 0.00 0.00 0.00 45 1004.4
20260504215038 26 263 8.0 11.3 0.00 0.00 0.00 46 1004.5
20260504214533 27 330 3.2 3.2 0.00 0.00 0.00 46 1004.5
20260504214030 27 270 4.8 8.0 0.00 0.00 0.00 47 1004.5
20260504213527 27 268 3.2 3.2 0.00 0.00 0.00 44 1004.5
20260504213024 27 234 4.8 4.8 0.00 0.00 0.00 45 1004.3
20260504212520 27 242 6.4 9.7 0.00 0.00 0.00 44 1004.5
20260504212017 27 344 6.4 8.0 0.00 0.00 0.00 44 1004.6
20260504211514 27 266 4.8 4.8 0.00 0.00 0.00 45 1004.6
20260504211011 27 52 1.6 1.6 0.00 0.00 0.00 46 1004.4
20260504210508 27 263 1.6 3.2 0.00 0.00 0.00 47 1004.7
20260504210005 27 291 6.4 9.7 0.00 0.00 0.00 45 1004.6
20260504205503 26 343 9.7 17.7 0.00 0.00 0.00 45 1004.8
20260504205000 26 264 3.2 4.8 0.00 0.00 0.00 48 1005.0
20260504204458 26 280 3.2 3.2 0.00 0.00 0.00 49 1004.7
20260504203957 26 285 6.4 8.0 0.00 0.00 0.00 47 1004.7
20260504203455 26 318 11.3 17.7 0.00 0.00 0.00 48 1004.8
20260504202950 26 261 3.2 3.2 0.00 0.00 0.00 48 1004.9
20260504202447 26 316 3.2 4.8 0.00 0.00 0.00 50 1005.0
20260504201944 26 237 4.8 4.8 0.00 0.00 0.00 48 1004.8
20260504201441 25 329 3.2 3.2 0.00 0.00 0.00 49 1004.9
20260504200939 26 209 9.7 20.9 0.00 0.00 0.00 48 1004.7
20260504200435 26 264 3.2 3.2 0.00 0.00 0.00 49 1005.0
20260504195932 26 251 4.8 4.8 0.00 0.00 0.00 48 1005.0
20260504195428 25 280 6.4 9.7 0.00 0.00 0.00 49 1005.2
20260504194924 25 252 6.4 11.3 0.00 0.00 0.00 50 1005.0
20260504194421 25 323 3.2 4.8 0.00 0.00 0.00 51 1005.6
20260504193917 25 297 3.2 4.8 0.00 0.00 0.00 49 1005.3
20260504193414 26 320 4.8 8.0 0.00 0.00 0.00 48 1005.3
20260504192913 26 284 4.8 9.7 0.00 0.00 0.00 48 1005.5
20260504192410 26 349 4.8 4.8 0.00 0.00 0.00 45 1005.1
20260504191909 26 338 4.8 4.8 0.00 0.00 0.00 48 1005.5
20260504191406 26 321 3.2 4.8 0.00 0.00 0.00 48 1005.3
20260504190901 25 318 4.8 8.0 0.00 0.00 0.00 50 1005.5
20260504190357 25 289 3.2 3.2 0.00 0.00 0.00 51 1005.3
20260504185854 23 322 4.8 8.0 0.00 0.00 0.00 52 1005.3
20260504185351 24 338 3.2 3.2 0.00 0.00 0.00 53 1005.6
20260504184847 24 234 8.0 12.9 0.00 0.00 0.00 52 1005.9
20260504184343 23 249 6.4 9.7 0.00 0.00 0.00 52 1005.8
20260504183839 23 325 1.6 1.6 0.00 0.00 0.00 54 1006.1
20260504183337 23 266 3.2 4.8 0.00 0.00 0.00 52 1006.5
20260504182834 23 1 1.6 3.2 0.00 0.00 0.00 54 1006.2
20260504182331 23 299 12.9 20.9 0.00 0.00 0.00 51 1006.3
20260504181828 23 3 4.8 8.0 0.00 0.00 0.00 52 1006.2
20260504181326 23 340 6.4 8.0 0.00 0.00 0.00 50 1006.5
20260504180824 23 277 1.6 3.2 0.00 0.00 0.00 52 1006.5
20260504180322 24 257 4.8 8.0 0.00 0.00 0.00 49 1006.3
20260504175820 25 269 3.2 3.2 0.00 0.00 0.00 51 1006.3
20260504175317 25 241 4.8 4.8 0.00 0.00 0.00 48 1006.3
20260504174815 25 214 11.3 12.9 0.00 0.00 0.00 46 1006.1
20260504174312 26 342 3.2 3.2 0.00 0.00 0.00 47 1006.5
20260504173809 26 250 6.4 8.0 0.00 0.00 0.00 47 1006.4
20260504173306 26 309 4.8 4.8 0.00 0.00 0.00 45 1006.1
20260504172803 26 293 3.2 4.8 0.00 0.00 0.00 45 1006.4
20260504172259 26 348 8.0 11.3 0.00 0.00 0.00 47 1006.0
20260504171755 26 321 3.2 4.8 0.00 0.00 0.00 48 1006.5
20260504171252 26 246 3.2 4.8 0.00 0.00 0.00 45 1006.2
20260504170749 26 253 3.2 3.2 0.00 0.00 0.00 46 1006.6
20260504170246 26 254 4.8 8.0 0.00 0.00 0.00 46 1006.4
20260504160205 24 266 11.3 16.1 0.00 0.00 0.00 46 1006.3
20260504151133 22 333 4.8 4.8 0.00 0.00 0.00 49 1006.6
20260504150630 22 314 6.4 11.3 0.00 0.00 0.00 49 1006.8
20260504150127 22 280 4.8 4.8 0.00 0.00 0.00 50 1006.7
20260504141055 20 278 3.2 8.0 0.00 0.00 0.00 54 1007.4
20260504140552 20 321 9.7 14.5 0.00 0.00 0.00 53 1007.5
20260504130516 18 232 3.2 4.8 0.00 0.00 0.00 58 1007.7
20260504110404 17 316 4.8 4.8 0.00 0.00 0.00 57 1008.0
20260504100321 17 289 3.2 4.8 0.00 0.00 0.00 55 1008.1
20260504081715 17 323 4.8 8.0 0.00 0.00 0.00 58 1008.7
20260504081211 18 297 1.6 3.2 0.00 0.00 0.00 58 1008.7
20260504080707 18 272 3.2 4.8 0.00 0.00 0.00 58 1008.8
20260504080204 18 269 1.6 3.2 0.00 0.00 0.00 58 1008.8
20260504070131 18 266 1.6 3.2 0.00 0.00 0.00 55 1009.1
20260504050520 18 251 8.0 11.3 0.00 0.00 0.00 55 1009.7
20260504050017 18 281 1.6 3.2 0.00 0.00 0.00 55 1009.9
20260504045514 18 1 4.8 9.7 0.00 0.00 0.00 56 1010.0
20260504045009 18 17 1.6 3.2 0.00 0.00 0.00 55 1009.9
20260504044507 18 325 1.6 1.6 0.00 0.00 0.00 56 1009.9
20260504044004 18 49 1.6 1.6 0.00 0.00 0.00 55 1009.9
20260504043500 18 321 1.6 3.2 0.00 0.00 0.00 56 1010.2
20260504042958 18 306 3.2 3.2 0.00 0.00 0.00 55 1010.0
20260504042454 18 324 1.6 1.6 0.00 0.00 0.00 55 1010.1